Les Eplatures Airport LSGC

Flugplatz Daten

Name: Les Eplatures Airport

Ident: LSGC

Lat: 47,08390045

Long: 6,792840004

Platzhöhe: 3368 ft

IataCode:

City: La Chaux-de-Fonds

Homepage: http://www.leseplaturesairport.ch

Metar

2022/08/10 19:50
LSGC 101950Z AUTO 05004KT 020V080 9999 NCD 19/07 Q1023

Taf

Gewünschte Webcam nicht vorhanden? Dann fügen Sie eine hinzu. Sie wird dann so schnell wie möglich freigeschaltet
Url: Title: